START_TIME,STEP,MOV.,P11,t_acc.,P23,t_acc.,P27,t_acc.,A4,t_acc.
1979-07-05 03:00:23.860 ,1,0,0.,4.8,0.,4.8,0.,4.8,0.,4.8
1979-07-05 03:00:28.660 ,1,0,0.,4.8,0.,4.8,0.,4.8,0.,4.8
1979-07-05 03:00:33.460 ,1,0,0.,4.8,0.,4.8,0.,4.8,0.,4.8
1979-07-05 03:00:38.260 ,1,0,0.,4.8,0.,4.8,0.,4.8,0.,4.8
1979-07-05 03:00:43.060 ,1,0,1.,4.8,0.,4.8,0.,4.8,1.,4.8
1979-07-05 03:00:47.860 ,2,0,0.,4.8,0.,4.8,0.,4.8,0.,4.8
1979-07-05 03:00:52.660 ,2,0,0.,4.8,0.,4.8,0.,4.8,0.,4.8
1979-07-05 03:00:57.460 ,2,0,1.,4.8,0.,4.8,0.,4.8,0.,4.8
1979-07-05 03:01:02.260 ,2,0,0.,4.8,0.,4.8,0.,4.8,0.,4.8
1979-07-05 03:01:07.060 ,2,0,1.,4.8,0.,4.8,0.,4.8,0.,4.8
1979-07-05 03:01:11.860 ,2,0,0.,4.8,0.,4.8,0.,4.8,0.,4.8
1979-07-05 03:01:16.660 ,2,0,0.,4.8,0.,4.8,0.,4.8,0.,4.8
1979-07-05 03:01:21.460 ,2,0,0.,4.8,0.,4.8,1.,4.8,0.,4.8
1979-07-05 03:01:26.260 ,2,0,0.,4.8,0.,4.8,0.,4.8,0.,4.8
1979-07-05 03:01:31.060 ,2,0,0.,4.8,0.,4.8,1.,4.8,0.,4.8
1979-07-05 03:01:35.860 ,3,0,0.,4.8,0.,4.8,0.,4.8,0.,4.8
1979-07-05 03:01:40.660 ,3,0,0.,4.8,0.,4.8,1.,4.8,0.,4.8
1979-07-05 03:01:45.460 ,3,0,0.,4.8,0.,4.8,0.,4.8,0.,4.8
1979-07-05 03:01:50.260 ,3,0,0.,4.8,0.,4.8,0.,4.8,0.,4.8
1979-07-05 03:01:55.060 ,3,0,0.,4.8,0.,4.8,0.,4.8,0.,4.8
1979-07-05 03:01:59.860 ,3,0,0.,4.8,0.,4.8,0.,4.8,0.,4.8
1979-07-05 03:02:04.660 ,3,0,0.,4.8,0.,4.8,0.,4.8,0.,4.8
1979-07-05 03:02:09.460 ,3,0,1.,4.8,0.,4.8,0.,4.8,0.,4.8
1979-07-05 03:02:14.260 ,3,0,0.,4.8,0.,4.8,0.,4.8,0.,4.8
1979-07-05 03:02:19.060 ,3,0,1.,4.8,0.,4.8,0.,4.8,0.,4.8
1979-07-05 03:02:23.860 ,4,0,0.,4.8,0.,4.8,0.,4.8,0.,4.8
1979-07-05 03:02:28.660 ,4,0,0.,4.8,0.,4.8,1.,4.8,0.,4.8
1979-07-05 03:02:33.460 ,4,0,1.,4.8,0.,4.8,0.,4.8,0.,4.8
1979-07-05 03:02:38.260 ,4,0,0.,4.8,0.,4.8,0.,4.8,0.,4.8
1979-07-05 03:02:43.060 ,4,0,0.,4.8,0.,4.8,0.,4.8,0.,4.8
1979-07-05 03:02:47.860 ,4,0,2.,4.8,0.,4.8,0.,4.8,0.,4.8
1979-07-05 03:02:52.660 ,4,0,1.,4.8,0.,4.8,0.,4.8,0.,4.8
1979-07-05 03:02:57.460 ,4,0,0.,4.8,0.,4.8,0.,4.8,0.,4.8
1979-07-05 03:03:02.260 ,4,0,0.,4.8,0.,4.8,0.,4.8,0.,4.8
1979-07-05 03:03:07.060 ,4,0,0.,4.8,0.,4.8,0.,4.8,0.,4.8
1979-07-05 03:03:11.860 ,5,0,0.,4.8,0.,4.8,0.,4.8,0.,4.8
1979-07-05 03:03:16.660 ,5,0,0.,4.8,0.,4.8,0.,4.8,0.,4.8
1979-07-05 03:03:21.460 ,5,0,0.,4.8,0.,4.8,0.,4.8,0.,4.8
1979-07-05 03:03:26.260 ,5,0,0.,4.8,0.,4.8,0.,4.8,0.,4.8
1979-07-05 03:03:31.060 ,5,0,0.,4.8,0.,4.8,0.,4.8,0.,4.8
1979-07-05 03:03:35.860 ,5,0,1.,4.8,0.,4.8,0.,4.8,0.,4.8
1979-07-05 03:03:40.660 ,5,0,0.,4.8,0.,4.8,0.,4.8,0.,4.8
1979-07-05 03:03:45.460 ,5,0,0.,4.8,0.,4.8,0.,4.8,0.,4.8
1979-07-05 03:03:50.260 ,5,0,0.,4.8,0.,4.8,0.,4.8,0.,4.8
1979-07-05 03:03:55.060 ,5,0,0.,4.8,0.,4.8,0.,4.8,0.,4.8
1979-07-05 03:03:59.860 ,6,0,0.,4.8,0.,4.8,0.,4.8,0.,4.8
1979-07-05 03:04:04.660 ,6,0,0.,4.8,0.,4.8,0.,4.8,0.,4.8
1979-07-05 03:04:09.460 ,6,0,0.,4.8,0.,4.8,0.,4.8,0.,4.8
1979-07-05 03:04:14.260 ,6,0,0.,4.8,0.,4.8,0.,4.8,0.,4.8
1979-07-05 03:04:19.060 ,6,0,0.,4.8,0.,4.8,0.,4.8,0.,4.8
1979-07-05 03:04:23.860 ,0,0,0.,4.8,0.,4.8,0.,4.8,0.,4.8
1979-07-05 03:04:28.660 ,0,0,0.,4.8,0.,4.8,0.,4.8,0.,4.8
1979-07-05 03:04:33.460 ,0,0,1.,4.8,0.,4.8,0.,4.8,0.,4.8
1979-07-05 03:04:38.260 ,0,0,0.,4.8,0.,4.8,0.,4.8,0.,4.8
1979-07-05 03:04:43.060 ,0,0,1.,4.8,0.,4.8,0.,4.8,0.,4.8
1979-07-05 03:05:00.460 ,0,0,,0,,0,,0,,0
1979-07-05 03:05:05.260 ,0,0,,0,,0,,0,,0
1979-07-05 03:05:10.060 ,0,0,,0,,0,,0,,0
1979-07-05 03:05:14.860 ,0,0,1.,4.8,0.,4.8,0.,4.8,0.,4.8
1979-07-05 03:05:19.660 ,0,0,0.,4.8,0.,4.8,0.,4.8,0.,4.8
1979-07-05 03:05:11.860 ,0,0,0.,4.8,1.,4.8,0.,4.8,0.,4.8
1979-07-05 03:05:16.660 ,0,0,0.,4.8,0.,4.8,0.,4.8,0.,4.8
1979-07-05 03:05:21.460 ,0,0,1.,4.8,0.,4.8,0.,4.8,0.,4.8
1979-07-05 03:05:26.260 ,0,0,0.,4.8,0.,4.8,0.,4.8,0.,4.8
1979-07-05 03:05:31.060 ,0,0,,0,,0,,0,,0
1979-07-05 03:05:35.860 ,0,0,,0,,0,,0,,0
1979-07-05 03:05:40.660 ,0,0,,0,,0,,0,,0
1979-07-05 03:05:45.460 ,0,0,,0,,0,,0,,0
1979-07-05 03:05:50.260 ,0,0,,0,,0,,0,,0
1979-07-05 03:05:55.060 ,0,0,0.,4.8,0.,4.8,0.,4.8,0.,4.8
1979-07-05 03:05:59.860 ,0,0,,0,,0,,0,,0
1979-07-05 03:06:04.660 ,0,0,,0,,0,,0,,0
1979-07-05 03:06:09.460 ,0,0,,0,,0,,0,,0
1979-07-05 03:06:14.260 ,0,0,2.,4.8,0.,4.8,0.,4.8,0.,4.8
1979-07-05 03:06:19.060 ,0,0,0.,4.8,0.,4.8,0.,4.8,0.,4.8
1979-07-05 03:06:23.860 ,0,0,,0,,0,,0,,0
1979-07-05 03:06:28.660 ,0,0,,0,,0,,0,,0
1979-07-05 03:06:33.460 ,0,0,0.,4.8,0.,4.8,0.,4.8,0.,4.8
1979-07-05 03:06:38.260 ,0,0,0.,4.8,0.,4.8,0.,4.8,0.,4.8
1979-07-05 03:06:43.060 ,0,0,,0,,0,,0,,0
1979-07-05 03:06:47.860 ,0,0,,0,,0,,0,,0
1979-07-05 03:06:52.660 ,0,0,,0,,0,,0,,0
1979-07-05 03:06:57.460 ,0,0,0.,4.8,0.,4.8,0.,4.8,0.,4.8
1979-07-05 03:07:02.260 ,0,0,,0,,0,,0,,0
1979-07-05 03:07:07.060 ,0,0,0.,4.8,0.,4.8,0.,4.8,0.,4.8
1979-07-05 03:07:11.860 ,5,0,,0,,0,,0,,0
1979-07-05 03:07:16.660 ,5,0,,0,,0,,0,,0
1979-07-05 03:07:21.460 ,5,0,0.,4.8,0.,4.8,0.,4.8,0.,4.8
1979-07-05 03:07:26.260 ,5,0,0.,4.8,0.,4.8,0.,4.8,0.,4.8
1979-07-05 03:07:31.060 ,5,0,0.,4.8,0.,4.8,0.,4.8,1.,4.8
1979-07-05 03:07:35.860 ,5,0,,0,,0,,0,,0
1979-07-05 03:07:40.660 ,5,0,,0,,0,,0,,0
1979-07-05 03:07:45.460 ,5,0,,0,,0,,0,,0
1979-07-05 03:07:50.260 ,5,0,,0,,0,,0,,0
1979-07-05 03:07:55.060 ,5,0,,0,,0,,0,,0
1979-07-05 03:08:01.060 ,0,0,,0,,0,,0,,0
1979-07-05 03:08:05.860 ,0,0,0.,4.8,0.,4.8,0.,4.8,0.,4.8
1979-07-05 03:08:10.660 ,0,0,,0,,0,,0,,0
1979-07-05 03:08:15.460 ,0,0,0.,4.8,0.,4.8,1.,4.8,0.,4.8
1979-07-05 03:08:20.260 ,0,0,0.,4.8,0.,4.8,0.,4.8,0.,4.8
1979-07-05 03:08:23.860 ,0,0,0.,4.8,0.,4.8,0.,4.8,0.,4.8
1979-07-05 03:08:28.660 ,0,0,,0,,0,,0,,0
1979-07-05 03:08:33.460 ,0,0,,0,,0,,0,,0
1979-07-05 03:08:38.260 ,0,0,,0,,0,,0,,0
1979-07-05 03:08:43.060 ,0,0,0.,4.8,0.,4.8,0.,4.8,0.,4.8
1979-07-05 03:08:47.860 ,0,0,,0,,0,,0,,0
1979-07-05 03:08:52.660 ,0,0,,0,,0,,0,,0
1979-07-05 03:08:57.460 ,0,0,,0,,0,,0,,0
1979-07-05 03:09:02.260 ,0,0,,0,,0,,0,,0
1979-07-05 03:09:07.060 ,0,0,0.,4.8,0.,4.8,0.,4.8,0.,4.8
1979-07-05 03:09:11.860 ,0,0,1.,4.8,0.,4.8,0.,4.8,0.,4.8
1979-07-05 03:09:16.660 ,0,0,1.,4.8,0.,4.8,1.,4.8,0.,4.8
1979-07-05 03:09:21.460 ,0,0,1.,4.8,0.,4.8,0.,4.8,0.,4.8
1979-07-05 03:09:26.260 ,0,0,,0,,0,,0,,0
1979-07-05 03:09:31.060 ,0,0,0.,4.8,0.,4.8,0.,4.8,0.,4.8
1979-07-05 03:09:35.860 ,0,0,,0,,0,,0,,0
1979-07-05 03:09:40.660 ,0,0,0.,4.8,0.,4.8,1.,4.8,0.,4.8
1979-07-05 03:09:45.460 ,0,0,,0,,0,,0,,0
1979-07-05 03:09:50.260 ,0,0,,0,,0,,0,,0
1979-07-05 03:09:55.060 ,0,0,1.,4.8,0.,4.8,0.,4.8,0.,4.8
1979-07-05 03:09:59.860 ,0,0,0.,4.8,0.,4.8,0.,4.8,0.,4.8
1979-07-05 03:10:04.660 ,0,0,,0,,0,,0,,0
1979-07-05 03:10:09.460 ,0,0,,0,,0,,0,,0
1979-07-05 03:10:14.260 ,0,0,0.,4.8,0.,4.8,0.,4.8,0.,4.8
1979-07-05 03:10:19.060 ,0,0,0.,4.8,0.,4.8,0.,4.8,0.,4.8
1979-07-05 03:10:23.860 ,0,0,,0,,0,,0,,0
1979-07-05 03:10:28.660 ,0,0,,0,,0,,0,,0
1979-07-05 03:10:33.460 ,0,0,,0,,0,,0,,0
1979-07-05 03:10:38.260 ,0,0,,0,,0,,0,,0
1979-07-05 03:10:43.060 ,0,0,0.,4.8,0.,4.8,0.,4.8,0.,4.8
1979-07-05 03:10:47.860 ,0,0,0.,4.8,0.,4.8,1.,4.8,0.,4.8
1979-07-05 03:10:52.660 ,0,0,0.,4.8,0.,4.8,0.,4.8,0.,4.8
1979-07-05 03:10:57.460 ,0,0,0.,4.8,0.,4.8,0.,4.8,0.,4.8
1979-07-05 03:11:02.260 ,0,0,1.,4.8,0.,4.8,0.,4.8,0.,4.8
1979-07-05 03:11:07.060 ,0,0,,0,,0,,0,,0
1979-07-05 03:11:11.860 ,0,0,,0,,0,,0,,0
1979-07-05 03:11:16.660 ,0,0,,0,,0,,0,,0
1979-07-05 03:11:21.460 ,0,0,,0,,0,,0,,0
1979-07-05 03:11:26.260 ,0,0,,0,,0,,0,,0
1979-07-05 03:11:31.060 ,0,0,,0,,0,,0,,0
1979-07-05 03:11:35.860 ,0,0,,0,,0,,0,,0
1979-07-05 03:11:40.660 ,0,0,,0,,0,,0,,0
1979-07-05 03:11:45.460 ,0,0,0.,4.8,0.,4.8,0.,4.8,0.,4.8
1979-07-05 03:11:50.260 ,0,0,,0,,0,,0,,0
1979-07-05 03:11:55.060 ,0,0,0.,4.8,0.,4.8,1.,4.8,0.,4.8
1979-07-05 03:11:59.860 ,0,1,0.,4.8,0.,4.8,0.,4.8,0.,4.8
1979-07-05 03:12:04.660 ,0,1,0.,4.8,0.,4.8,0.,4.8,0.,4.8
1979-07-05 03:12:09.460 ,0,1,1.,4.8,0.,4.8,2.,4.8,0.,4.8
1979-07-05 03:12:14.260 ,0,1,,0,,0,,0,,0
1979-07-05 03:12:19.060 ,0,1,,0,,0,,0,,0
1979-07-05 03:12:23.860 ,0,0,1.,4.8,0.,4.8,0.,4.8,0.,4.8
1979-07-05 03:12:28.660 ,0,0,0.,4.8,0.,4.8,0.,4.8,0.,4.8
1979-07-05 03:12:33.460 ,0,0,0.,4.8,0.,4.8,0.,4.8,0.,4.8
1979-07-05 03:12:38.260 ,0,0,1.,4.8,0.,4.8,1.,4.8,0.,4.8
1979-07-05 03:12:43.060 ,0,0,,0,,0,,0,,0
1979-07-05 03:12:49.060 ,0,0,,0,,0,,0,,0
1979-07-05 03:12:53.860 ,0,0,0.,4.8,0.,4.8,0.,4.8,0.,4.8
1979-07-05 03:12:58.660 ,0,0,,0,,0,,0,,0
1979-07-05 03:13:03.460 ,0,0,,0,,0,,0,,0
1979-07-05 03:13:08.260 ,0,0,,0,,0,,0,,0
1979-07-05 03:13:11.860 ,0,0,,0,,0,,0,,0
1979-07-05 03:13:16.660 ,0,0,,0,,0,,0,,0
1979-07-05 03:13:21.460 ,0,0,,0,,0,,0,,0
1979-07-05 03:13:26.260 ,0,0,1.,4.8,0.,4.8,1.,4.8,0.,4.8
1979-07-05 03:13:31.060 ,0,0,0.,4.8,1.,4.8,0.,4.8,0.,4.8
1979-07-05 03:13:35.860 ,2,0,0.,4.8,0.,4.8,1.,4.8,0.,4.8
1979-07-05 03:13:40.660 ,2,0,0.,4.8,0.,4.8,0.,4.8,0.,4.8
1979-07-05 03:13:45.460 ,2,0,,0,,0,,0,,0
1979-07-05 03:13:50.260 ,2,0,0.,4.8,0.,4.8,1.,4.8,0.,4.8
1979-07-05 03:13:55.060 ,2,0,,0,,0,,0,,0
1979-07-05 03:13:59.860 ,0,0,,0,,0,,0,,0
1979-07-05 03:14:04.660 ,0,0,,0,,0,,0,,0
1979-07-05 03:14:09.460 ,0,0,0.,4.8,0.,4.8,0.,4.8,0.,4.8
1979-07-05 03:14:14.260 ,0,0,,0,,0,,0,,0
1979-07-05 03:14:19.060 ,0,0,0.,4.8,0.,4.8,0.,4.8,0.,4.8
1979-07-05 03:14:23.860 ,0,0,0.,4.8,0.,4.8,0.,4.8,0.,4.8
1979-07-05 03:14:28.660 ,0,0,0.,4.8,0.,4.8,0.,4.8,0.,4.8
1979-07-05 03:14:33.460 ,0,0,0.,4.8,0.,4.8,0.,4.8,0.,4.8
1979-07-05 03:14:38.260 ,0,0,0.,4.8,0.,4.8,0.,4.8,0.,4.8
1979-07-05 03:14:43.060 ,0,0,0.,4.8,0.,4.8,0.,4.8,0.,4.8
1979-07-05 03:14:47.860 ,0,0,1.,4.8,0.,4.8,0.,4.8,0.,4.8
1979-07-05 03:14:52.660 ,0,0,2.,4.8,0.,4.8,1.,4.8,0.,4.8
1979-07-05 03:14:57.460 ,0,0,0.,4.8,0.,4.8,0.,4.8,0.,4.8
1979-07-05 03:15:02.260 ,0,0,0.,4.8,0.,4.8,0.,4.8,0.,4.8
1979-07-05 03:15:07.060 ,0,0,0.,4.8,0.,4.8,0.,4.8,0.,4.8
1979-07-05 03:15:11.860 ,4,0,,0,,0,,0,,0
1979-07-05 03:15:16.660 ,4,0,1.,4.8,0.,4.8,1.,4.8,0.,4.8
1979-07-05 03:15:21.460 ,4,0,1.,4.8,0.,4.8,0.,4.8,0.,4.8
1979-07-05 03:15:26.260 ,4,0,0.,4.8,0.,4.8,0.,4.8,0.,4.8
1979-07-05 03:15:31.060 ,4,0,0.,4.8,0.,4.8,0.,4.8,0.,4.8
1979-07-05 03:15:35.860 ,4,0,1.,4.8,0.,4.8,0.,4.8,0.,4.8
1979-07-05 03:15:40.660 ,4,0,1.,4.8,0.,4.8,0.,4.8,0.,4.8
1979-07-05 03:15:45.460 ,4,0,0.,4.8,0.,4.8,0.,4.8,0.,4.8
1979-07-05 03:15:50.260 ,4,0,0.,4.8,0.,4.8,0.,4.8,0.,4.8
1979-07-05 03:15:55.060 ,4,0,0.,4.8,0.,4.8,0.,4.8,0.,4.8
1979-07-05 03:15:59.860 ,5,0,1.,4.8,0.,4.8,0.,4.8,0.,4.8
1979-07-05 03:16:04.660 ,5,0,0.,4.8,0.,4.8,1.,4.8,0.,4.8
1979-07-05 03:16:09.460 ,5,0,0.,4.8,0.,4.8,0.,4.8,0.,4.8
1979-07-05 03:16:14.260 ,5,0,0.,4.8,0.,4.8,0.,4.8,0.,4.8
1979-07-05 03:16:19.060 ,5,0,1.,4.8,0.,4.8,0.,4.8,0.,4.8
1979-07-05 03:16:23.860 ,5,0,0.,4.8,0.,4.8,0.,4.8,0.,4.8
1979-07-05 03:16:28.660 ,5,0,1.,4.8,0.,4.8,0.,4.8,0.,4.8
1979-07-05 03:16:33.460 ,5,0,2.,4.8,0.,4.8,0.,4.8,0.,4.8
1979-07-05 03:16:38.260 ,5,0,0.,4.8,0.,4.8,0.,4.8,0.,4.8
1979-07-05 03:16:43.060 ,5,0,0.,4.8,0.,4.8,1.,4.8,0.,4.8
1979-07-05 03:16:47.860 ,6,0,1.,4.8,0.,4.8,0.,4.8,0.,4.8
1979-07-05 03:16:52.660 ,6,0,1.,4.8,0.,4.8,0.,4.8,0.,4.8
1979-07-05 03:16:57.460 ,6,0,1.,4.8,0.,4.8,0.,4.8,0.,4.8
1979-07-05 03:17:02.260 ,6,0,1.,4.8,0.,4.8,0.,4.8,0.,4.8
1979-07-05 03:17:07.060 ,6,0,0.,4.8,0.,4.8,0.,4.8,0.,4.8
1979-07-05 03:17:11.860 ,6,0,0.,4.8,0.,4.8,0.,4.8,0.,4.8
1979-07-05 03:17:16.660 ,6,0,0.,4.8,0.,4.8,1.,4.8,0.,4.8
1979-07-05 03:17:21.460 ,6,0,0.,4.8,0.,4.8,0.,4.8,0.,4.8
1979-07-05 03:17:26.260 ,6,0,0.,4.8,0.,4.8,1.,4.8,0.,4.8
1979-07-05 03:17:31.060 ,6,0,0.,4.8,0.,4.8,0.,4.8,0.,4.8
1979-07-05 03:17:35.860 ,7,0,0.,4.8,0.,4.8,0.,4.8,0.,4.8
1979-07-05 03:17:40.660 ,7,0,1.,4.8,0.,4.8,0.,4.8,0.,4.8
1979-07-05 03:17:45.460 ,7,0,0.,4.8,0.,4.8,0.,4.8,0.,4.8
1979-07-05 03:17:50.260 ,7,0,0.,4.8,0.,4.8,0.,4.8,1.,4.8
1979-07-05 03:17:55.060 ,7,0,0.,4.8,1.,4.8,0.,4.8,0.,4.8
1979-07-05 03:17:59.860 ,7,0,0.,4.8,0.,4.8,0.,4.8,0.,4.8
1979-07-05 03:18:04.660 ,7,0,0.,4.8,0.,4.8,0.,4.8,0.,4.8
1979-07-05 03:18:09.460 ,7,0,0.,4.8,0.,4.8,0.,4.8,0.,4.8
1979-07-05 03:18:14.260 ,7,0,0.,4.8,0.,4.8,0.,4.8,0.,4.8
1979-07-05 03:18:19.060 ,7,0,1.,4.8,0.,4.8,0.,4.8,0.,4.8
1979-07-05 03:18:23.860 ,7,0,0.,4.8,0.,4.8,0.,4.8,0.,4.8
1979-07-05 03:18:28.660 ,7,0,0.,4.8,0.,4.8,0.,4.8,0.,4.8
1979-07-05 03:18:33.460 ,7,0,0.,4.8,0.,4.8,0.,4.8,0.,4.8
1979-07-05 03:18:38.260 ,7,0,0.,4.8,0.,4.8,0.,4.8,0.,4.8
1979-07-05 03:18:43.060 ,7,0,1.,4.8,0.,4.8,0.,4.8,0.,4.8
1979-07-05 03:18:47.860 ,7,0,3.,4.8,0.,4.8,0.,4.8,0.,4.8
1979-07-05 03:18:52.660 ,7,0,0.,4.8,0.,4.8,0.,4.8,0.,4.8
1979-07-05 03:18:57.460 ,7,0,1.,4.8,0.,4.8,1.,4.8,0.,4.8
1979-07-05 03:19:02.260 ,7,0,1.,4.8,0.,4.8,0.,4.8,0.,4.8
1979-07-05 03:19:07.060 ,7,0,0.,4.8,0.,4.8,0.,4.8,0.,4.8
1979-07-05 03:19:11.860 ,6,0,0.,4.8,0.,4.8,0.,4.8,0.,4.8
1979-07-05 03:19:16.660 ,6,0,0.,4.8,0.,4.8,0.,4.8,0.,4.8
1979-07-05 03:19:21.460 ,6,0,2.,4.8,1.,4.8,0.,4.8,0.,4.8
1979-07-05 03:19:26.260 ,6,0,1.,4.8,0.,4.8,1.,4.8,0.,4.8
1979-07-05 03:19:31.060 ,6,0,0.,4.8,0.,4.8,0.,4.8,0.,4.8
1979-07-05 03:19:35.860 ,6,0,0.,4.8,0.,4.8,0.,4.8,0.,4.8
1979-07-05 03:19:40.660 ,6,0,0.,4.8,0.,4.8,0.,4.8,0.,4.8
1979-07-05 03:19:45.460 ,6,0,0.,4.8,0.,4.8,0.,4.8,0.,4.8
1979-07-05 03:19:50.260 ,6,0,0.,4.8,0.,4.8,0.,4.8,0.,4.8
1979-07-05 03:19:55.060 ,6,0,0.,4.8,0.,4.8,0.,4.8,0.,4.8
1979-07-05 03:19:59.860 ,5,0,0.,4.8,0.,4.8,0.,4.8,0.,4.8
1979-07-05 03:20:04.660 ,5,0,1.,4.8,1.,4.8,0.,4.8,0.,4.8
1979-07-05 03:20:09.460 ,5,0,0.,4.8,0.,4.8,0.,4.8,0.,4.8
1979-07-05 03:20:14.260 ,5,0,0.,4.8,0.,4.8,0.,4.8,0.,4.8
1979-07-05 03:20:19.060 ,5,0,0.,4.8,0.,4.8,0.,4.8,0.,4.8
1979-07-05 03:20:23.860 ,5,0,0.,4.8,0.,4.8,0.,4.8,0.,4.8
1979-07-05 03:20:28.660 ,5,0,0.,4.8,0.,4.8,0.,4.8,0.,4.8
1979-07-05 03:20:33.460 ,5,0,0.,4.8,0.,4.8,0.,4.8,0.,4.8
1979-07-05 03:20:38.260 ,5,0,0.,4.8,0.,4.8,0.,4.8,0.,4.8
1979-07-05 03:20:43.060 ,5,0,0.,4.8,0.,4.8,0.,4.8,0.,4.8
1979-07-05 03:20:47.860 ,4,0,0.,4.8,0.,4.8,0.,4.8,0.,4.8
1979-07-05 03:20:52.660 ,4,0,0.,4.8,0.,4.8,0.,4.8,0.,4.8
1979-07-05 03:20:57.460 ,4,0,0.,4.8,0.,4.8,0.,4.8,0.,4.8
1979-07-05 03:21:02.260 ,4,0,0.,4.8,0.,4.8,0.,4.8,0.,4.8
1979-07-05 03:21:07.060 ,4,0,0.,4.8,0.,4.8,0.,4.8,0.,4.8
1979-07-05 03:21:11.860 ,4,0,1.,4.8,0.,4.8,0.,4.8,0.,4.8
1979-07-05 03:21:16.660 ,4,0,2.,4.8,0.,4.8,0.,4.8,0.,4.8
1979-07-05 03:21:21.460 ,4,0,0.,4.8,0.,4.8,0.,4.8,0.,4.8
1979-07-05 03:21:26.260 ,4,0,0.,4.8,0.,4.8,0.,4.8,0.,4.8
1979-07-05 03:21:31.060 ,4,0,0.,4.8,0.,4.8,0.,4.8,0.,4.8
1979-07-05 03:21:35.860 ,3,0,0.,4.8,0.,4.8,0.,4.8,0.,4.8
1979-07-05 03:21:40.660 ,3,0,0.,4.8,0.,4.8,0.,4.8,0.,4.8
1979-07-05 03:21:45.460 ,3,0,0.,4.8,0.,4.8,0.,4.8,0.,4.8
1979-07-05 03:21:50.260 ,3,0,0.,4.8,0.,4.8,1.,4.8,0.,4.8
1979-07-05 03:21:55.060 ,3,0,1.,4.8,0.,4.8,0.,4.8,0.,4.8
1979-07-05 03:21:59.860 ,3,0,0.,4.8,0.,4.8,0.,4.8,0.,4.8
1979-07-05 03:22:04.660 ,3,0,0.,4.8,0.,4.8,0.,4.8,0.,4.8
1979-07-05 03:22:09.460 ,3,0,0.,4.8,0.,4.8,1.,4.8,0.,4.8
1979-07-05 03:22:14.260 ,3,0,1.,4.8,0.,4.8,0.,4.8,0.,4.8
1979-07-05 03:22:19.060 ,3,0,1.,4.8,0.,4.8,0.,4.8,0.,4.8
1979-07-05 03:22:23.860 ,2,0,0.,4.8,0.,4.8,0.,4.8,0.,4.8
1979-07-05 03:22:28.660 ,2,0,0.,4.8,0.,4.8,1.,4.8,0.,4.8
1979-07-05 03:22:33.460 ,2,0,0.,4.8,0.,4.8,0.,4.8,0.,4.8
1979-07-05 03:22:38.260 ,2,0,0.,4.8,0.,4.8,0.,4.8,0.,4.8
1979-07-05 03:22:43.060 ,2,0,0.,4.8,0.,4.8,1.,4.8,0.,4.8
1979-07-05 03:22:47.860 ,2,0,0.,4.8,0.,4.8,0.,4.8,0.,4.8
1979-07-05 03:22:52.660 ,2,0,0.,4.8,0.,4.8,0.,4.8,0.,4.8
1979-07-05 03:22:57.460 ,2,0,0.,4.8,0.,4.8,0.,4.8,0.,4.8
1979-07-05 03:23:02.260 ,2,0,1.,4.8,0.,4.8,1.,4.8,0.,4.8
1979-07-05 03:23:07.060 ,2,0,1.,4.8,0.,4.8,0.,4.8,0.,4.8
1979-07-05 03:23:11.860 ,1,0,0.,4.8,0.,4.8,1.,4.8,0.,4.8
1979-07-05 03:23:16.660 ,1,0,0.,4.8,0.,4.8,0.,4.8,0.,4.8
1979-07-05 03:23:21.460 ,1,0,1.,4.8,0.,4.8,0.,4.8,0.,4.8
1979-07-05 03:23:26.260 ,1,0,0.,4.8,0.,4.8,0.,4.8,0.,4.8
1979-07-05 03:23:31.060 ,1,0,0.,4.8,0.,4.8,0.,4.8,0.,4.8
1979-07-05 03:23:35.860 ,1,0,0.,4.8,0.,4.8,0.,4.8,0.,4.8
1979-07-05 03:23:40.660 ,1,0,0.,4.8,1.,4.8,2.,4.8,0.,4.8
1979-07-05 03:23:45.460 ,1,0,2.,4.8,0.,4.8,0.,4.8,0.,4.8
1979-07-05 03:23:50.260 ,1,0,0.,4.8,0.,4.8,0.,4.8,0.,4.8
1979-07-05 03:23:55.060 ,1,0,0.,4.8,0.,4.8,0.,4.8,0.,4.8
1979-07-05 03:23:59.860 ,0,0,0.,4.8,0.,4.8,0.,4.8,0.,4.8
1979-07-05 03:24:04.660 ,0,0,0.,4.8,0.,4.8,0.,4.8,0.,4.8
1979-07-05 03:24:09.460 ,0,0,1.,4.8,0.,4.8,0.,4.8,0.,4.8
1979-07-05 03:24:14.260 ,0,0,1.,4.8,0.,4.8,0.,4.8,0.,4.8
1979-07-05 03:24:19.060 ,0,0,0.,4.8,0.,4.8,0.,4.8,0.,4.8
1979-07-05 03:24:23.860 ,0,0,0.,4.8,0.,4.8,0.,4.8,0.,4.8
1979-07-05 03:24:28.660 ,0,0,0.,4.8,0.,4.8,0.,4.8,0.,4.8
1979-07-05 03:24:33.460 ,0,0,0.,4.8,0.,4.8,0.,4.8,0.,4.8
1979-07-05 03:24:38.260 ,0,0,0.,4.8,0.,4.8,0.,4.8,0.,4.8
1979-07-05 03:24:43.060 ,0,0,0.,4.8,0.,4.8,0.,4.8,0.,4.8
1979-07-05 03:25:50.860 ,0,0,,0,,0,,0,,0
1979-07-05 03:25:55.660 ,0,0,,0,,0,,0,,0
1979-07-05 03:26:00.460 ,0,0,,0,,0,,0,,0
1979-07-05 03:26:05.260 ,0,0,1.,4.8,0.,4.8,0.,4.8,0.,4.8
1979-07-05 03:26:10.060 ,0,0,0.,4.8,0.,4.8,0.,4.8,0.,4.8
1979-07-05 03:25:59.860 ,0,0,0.,4.8,0.,4.8,0.,4.8,0.,4.8
1979-07-05 03:26:04.660 ,0,0,0.,4.8,0.,4.8,0.,4.8,0.,4.8
1979-07-05 03:26:09.460 ,0,0,0.,4.8,0.,4.8,0.,4.8,0.,4.8
1979-07-05 03:26:14.260 ,0,0,0.,4.8,0.,4.8,0.,4.8,0.,4.8
1979-07-05 03:26:19.060 ,0,0,0.,4.8,0.,4.8,0.,4.8,0.,4.8
1979-07-05 03:26:23.860 ,2,0,0.,4.8,0.,4.8,0.,4.8,0.,4.8
1979-07-05 03:26:28.660 ,2,0,0.,4.8,0.,4.8,0.,4.8,0.,4.8
1979-07-05 03:26:33.460 ,2,0,0.,4.8,0.,4.8,1.,4.8,0.,4.8
1979-07-05 03:26:38.260 ,2,0,0.,4.8,0.,4.8,0.,4.8,0.,4.8
1979-07-05 03:26:43.060 ,2,0,0.,4.8,0.,4.8,0.,4.8,0.,4.8
1979-07-05 03:26:47.860 ,2,0,0.,4.8,0.,4.8,0.,4.8,0.,4.8
1979-07-05 03:26:52.660 ,2,0,1.,4.8,0.,4.8,0.,4.8,0.,4.8
1979-07-05 03:26:57.460 ,2,0,0.,4.8,0.,4.8,0.,4.8,0.,4.8
1979-07-05 03:27:02.260 ,2,0,1.,4.8,0.,4.8,0.,4.8,0.,4.8
1979-07-05 03:27:07.060 ,2,0,0.,4.8,0.,4.8,0.,4.8,0.,4.8
1979-07-05 03:27:11.860 ,3,0,0.,4.8,0.,4.8,0.,4.8,0.,4.8
1979-07-05 03:27:16.660 ,3,0,0.,4.8,0.,4.8,0.,4.8,0.,4.8
1979-07-05 03:27:21.460 ,3,0,0.,4.8,0.,4.8,0.,4.8,0.,4.8
1979-07-05 03:27:26.260 ,3,0,0.,4.8,0.,4.8,0.,4.8,0.,4.8
1979-07-05 03:27:31.060 ,3,0,0.,4.8,0.,4.8,0.,4.8,0.,4.8
1979-07-05 03:27:35.860 ,3,0,0.,4.8,0.,4.8,0.,4.8,0.,4.8
1979-07-05 03:27:40.660 ,3,0,0.,4.8,0.,4.8,0.,4.8,1.,4.8
1979-07-05 03:27:45.460 ,3,0,1.,4.8,0.,4.8,0.,4.8,0.,4.8
1979-07-05 03:27:50.260 ,3,0,0.,4.8,0.,4.8,0.,4.8,0.,4.8
1979-07-05 03:27:55.060 ,3,0,1.,4.8,0.,4.8,0.,4.8,0.,4.8
1979-07-05 03:27:59.860 ,4,0,0.,4.8,0.,4.8,0.,4.8,0.,4.8
1979-07-05 03:28:04.660 ,4,0,0.,4.8,0.,4.8,0.,4.8,0.,4.8
1979-07-05 03:28:09.460 ,4,0,0.,4.8,0.,4.8,0.,4.8,0.,4.8
1979-07-05 03:28:14.260 ,4,0,0.,4.8,0.,4.8,1.,4.8,0.,4.8
1979-07-05 03:28:19.060 ,4,0,1.,4.8,0.,4.8,0.,4.8,0.,4.8
1979-07-05 03:28:23.860 ,4,0,0.,4.8,0.,4.8,0.,4.8,0.,4.8
1979-07-05 03:28:28.660 ,4,0,1.,4.8,0.,4.8,0.,4.8,0.,4.8
1979-07-05 03:28:33.460 ,4,0,0.,4.8,0.,4.8,0.,4.8,0.,4.8
1979-07-05 03:28:38.260 ,4,0,0.,4.8,0.,4.8,0.,4.8,0.,4.8
1979-07-05 03:28:43.060 ,4,0,1.,4.8,0.,4.8,0.,4.8,0.,4.8
1979-07-05 03:28:47.860 ,5,0,0.,4.8,0.,4.8,0.,4.8,0.,4.8
1979-07-05 03:28:52.660 ,5,0,0.,4.8,0.,4.8,0.,4.8,0.,4.8
1979-07-05 03:28:57.460 ,5,0,1.,4.8,0.,4.8,0.,4.8,0.,4.8
1979-07-05 03:29:02.260 ,5,0,0.,4.8,0.,4.8,0.,4.8,0.,4.8
1979-07-05 03:29:07.060 ,5,0,0.,4.8,0.,4.8,0.,4.8,0.,4.8
1979-07-05 03:29:11.860 ,5,0,0.,4.8,0.,4.8,0.,4.8,0.,4.8
1979-07-05 03:29:16.660 ,5,0,0.,4.8,0.,4.8,0.,4.8,0.,4.8
1979-07-05 03:29:21.460 ,5,0,0.,4.8,0.,4.8,0.,4.8,0.,4.8
1979-07-05 03:29:26.260 ,5,0,1.,4.8,0.,4.8,0.,4.8,0.,4.8
1979-07-05 03:29:31.060 ,5,0,0.,4.8,0.,4.8,0.,4.8,0.,4.8
1979-07-05 03:29:35.860 ,6,0,1.,4.8,1.,4.8,0.,4.8,0.,4.8
1979-07-05 03:29:40.660 ,6,0,0.,4.8,0.,4.8,0.,4.8,0.,4.8
1979-07-05 03:29:45.460 ,6,0,0.,4.8,0.,4.8,0.,4.8,0.,4.8
1979-07-05 03:29:50.260 ,6,0,0.,4.8,0.,4.8,0.,4.8,0.,4.8
1979-07-05 03:29:55.060 ,6,0,0.,4.8,0.,4.8,0.,4.8,0.,4.8
1979-07-05 03:29:59.860 ,6,0,0.,4.8,0.,4.8,0.,4.8,0.,4.8
1979-07-05 03:30:04.660 ,6,0,0.,4.8,0.,4.8,0.,4.8,0.,4.8
1979-07-05 03:30:09.460 ,6,0,0.,4.8,0.,4.8,0.,4.8,0.,4.8
1979-07-05 03:30:14.260 ,6,0,0.,4.8,0.,4.8,0.,4.8,0.,4.8
1979-07-05 03:30:19.060 ,6,0,1.,4.8,0.,4.8,0.,4.8,0.,4.8
1979-07-05 03:30:23.860 ,7,0,0.,4.8,0.,4.8,1.,4.8,0.,4.8
1979-07-05 03:30:28.660 ,7,0,0.,4.8,0.,4.8,0.,4.8,0.,4.8
1979-07-05 03:30:33.460 ,7,0,0.,4.8,0.,4.8,0.,4.8,0.,4.8
1979-07-05 03:30:38.260 ,7,0,0.,4.8,0.,4.8,0.,4.8,0.,4.8
1979-07-05 03:30:43.060 ,7,0,0.,4.8,0.,4.8,0.,4.8,0.,4.8
1979-07-05 03:30:47.860 ,7,0,0.,4.8,0.,4.8,0.,4.8,0.,4.8
1979-07-05 03:30:52.660 ,7,0,0.,4.8,0.,4.8,0.,4.8,0.,4.8
1979-07-05 03:30:57.460 ,7,0,0.,4.8,0.,4.8,0.,4.8,0.,4.8
1979-07-05 03:31:02.260 ,7,0,0.,4.8,0.,4.8,0.,4.8,0.,4.8
1979-07-05 03:31:07.060 ,7,0,1.,4.8,0.,4.8,0.,4.8,0.,4.8
1979-07-05 03:31:11.860 ,3,1,1.,4.8,0.,4.8,0.,4.8,0.,4.8
1979-07-05 03:31:16.660 ,3,1,0.,4.8,0.,4.8,0.,4.8,0.,4.8
1979-07-05 03:31:21.460 ,3,1,0.,4.8,0.,4.8,0.,4.8,0.,4.8
1979-07-05 03:31:26.260 ,3,1,0.,4.8,0.,4.8,0.,4.8,0.,4.8
1979-07-05 03:31:31.060 ,3,1,0.,4.8,0.,4.8,1.,4.8,0.,4.8
1979-07-05 03:31:35.860 ,0,1,0.,4.8,0.,4.8,0.,4.8,0.,4.8
1979-07-05 03:31:40.660 ,0,1,0.,4.8,0.,4.8,0.,4.8,0.,4.8
1979-07-05 03:31:45.460 ,0,1,0.,4.8,0.,4.8,0.,4.8,0.,4.8
1979-07-05 03:31:50.260 ,0,1,0.,4.8,0.,4.8,0.,4.8,0.,4.8
1979-07-05 03:31:55.060 ,0,1,0.,4.8,0.,4.8,0.,4.8,0.,4.8
1979-07-05 03:31:59.860 ,4,1,0.,4.8,0.,4.8,0.,4.8,0.,4.8
1979-07-05 03:32:04.660 ,4,1,0.,4.8,0.,4.8,0.,4.8,0.,4.8
1979-07-05 03:32:09.460 ,4,1,0.,4.8,0.,4.8,0.,4.8,0.,4.8
1979-07-05 03:32:14.260 ,4,1,0.,4.8,0.,4.8,1.,4.8,0.,4.8
1979-07-05 03:32:19.060 ,4,1,0.,4.8,0.,4.8,0.,4.8,0.,4.8
1979-07-05 03:32:23.860 ,7,1,1.,4.8,0.,4.8,0.,4.8,0.,4.8
1979-07-05 03:32:28.660 ,7,1,0.,4.8,0.,4.8,0.,4.8,0.,4.8
1979-07-05 03:32:33.460 ,7,1,0.,4.8,0.,4.8,0.,4.8,0.,4.8
1979-07-05 03:32:38.260 ,7,1,0.,4.8,0.,4.8,0.,4.8,0.,4.8
1979-07-05 03:32:43.060 ,7,1,0.,4.8,0.,4.8,0.,4.8,0.,4.8
1979-07-05 03:32:47.860 ,3,1,0.,4.8,0.,4.8,0.,4.8,0.,4.8
1979-07-05 03:32:52.660 ,3,1,0.,4.8,0.,4.8,0.,4.8,0.,4.8
1979-07-05 03:32:57.460 ,3,1,0.,4.8,0.,4.8,0.,4.8,0.,4.8
1979-07-05 03:33:02.260 ,3,1,0.,4.8,0.,4.8,0.,4.8,0.,4.8
1979-07-05 03:33:07.060 ,3,1,0.,4.8,0.,4.8,0.,4.8,0.,4.8
1979-07-05 03:33:11.860 ,0,1,1.,4.8,0.,4.8,0.,4.8,0.,4.8
1979-07-05 03:33:16.660 ,0,1,0.,4.8,0.,4.8,1.,4.8,0.,4.8
1979-07-05 03:33:21.460 ,0,1,0.,4.8,0.,4.8,0.,4.8,0.,4.8
1979-07-05 03:33:26.260 ,0,1,0.,4.8,0.,4.8,0.,4.8,0.,4.8
1979-07-05 03:33:31.060 ,0,1,0.,4.8,0.,4.8,0.,4.8,0.,4.8
1979-07-05 03:33:35.860 ,4,1,0.,4.8,0.,4.8,0.,4.8,0.,4.8
1979-07-05 03:33:40.660 ,4,1,0.,4.8,0.,4.8,0.,4.8,0.,4.8
1979-07-05 03:33:45.460 ,4,1,1.,4.8,0.,4.8,0.,4.8,0.,4.8
1979-07-05 03:33:50.260 ,4,1,0.,4.8,0.,4.8,0.,4.8,0.,4.8
1979-07-05 03:33:55.060 ,4,1,0.,4.8,0.,4.8,0.,4.8,0.,4.8
1979-07-05 03:33:59.860 ,7,1,0.,4.8,0.,4.8,0.,4.8,0.,4.8
1979-07-05 03:34:04.660 ,7,1,0.,4.8,0.,4.8,0.,4.8,0.,4.8
1979-07-05 03:34:09.460 ,7,1,0.,4.8,0.,4.8,0.,4.8,0.,4.8
1979-07-05 03:34:14.260 ,7,1,0.,4.8,0.,4.8,1.,4.8,0.,4.8
1979-07-05 03:34:19.060 ,7,1,0.,4.8,0.,4.8,1.,4.8,0.,4.8
1979-07-05 03:34:23.860 ,3,1,0.,4.8,0.,4.8,0.,4.8,0.,4.8
1979-07-05 03:34:28.660 ,3,1,0.,4.8,0.,4.8,0.,4.8,0.,4.8
1979-07-05 03:34:33.460 ,3,1,0.,4.8,0.,4.8,1.,4.8,1.,4.8
1979-07-05 03:34:38.260 ,3,1,0.,4.8,0.,4.8,1.,4.8,0.,4.8
1979-07-05 03:34:43.060 ,3,1,0.,4.8,0.,4.8,0.,4.8,0.,4.8
1979-07-05 03:34:47.860 ,0,1,0.,4.8,0.,4.8,0.,4.8,0.,4.8
1979-07-05 03:34:52.660 ,0,1,1.,4.8,0.,4.8,0.,4.8,0.,4.8
1979-07-05 03:34:57.460 ,0,1,1.,4.8,0.,4.8,0.,4.8,0.,4.8
1979-07-05 03:35:02.260 ,0,1,0.,4.8,0.,4.8,0.,4.8,0.,4.8
1979-07-05 03:35:07.060 ,0,1,0.,4.8,0.,4.8,0.,4.8,0.,4.8
1979-07-05 03:35:11.860 ,4,1,0.,4.8,0.,4.8,0.,4.8,0.,4.8
1979-07-05 03:35:16.660 ,4,1,0.,4.8,0.,4.8,0.,4.8,0.,4.8
1979-07-05 03:35:21.460 ,4,1,0.,4.8,0.,4.8,0.,4.8,0.,4.8
1979-07-05 03:35:26.260 ,4,1,0.,4.8,0.,4.8,0.,4.8,0.,4.8
1979-07-05 03:35:31.060 ,4,1,0.,4.8,0.,4.8,0.,4.8,0.,4.8
1979-07-05 03:35:35.860 ,7,1,0.,4.8,0.,4.8,0.,4.8,0.,4.8
1979-07-05 03:35:40.660 ,7,1,1.,4.8,0.,4.8,0.,4.8,0.,4.8